FORMOSAT-3 FM2 (29052 NORAD) Tracking and Keplerian Element Data

This shows tracking and keplerian element data for the satellite.

Feedback or suggestion? Click here.




ElementValue
Catalog29052
NameFORMOSAT-3 FM2
Epoch Orbit63963
Epoch Day198.90636127
Epoch Year2018
RAAN154.5888
Inclination72.034
Eccentricity0.0039147
Argument of Perigee142.9666
Mean Anonmoly217.4184
Mean Motion14.28781003
Decay Rate6.1E-07
L11 29052U 06011F 18198.90636127 .00000061 00000-0 40009-4 0 9991
L22 29052 72.0340 154.5888 0039147 142.9666 217.4184 14.28781003639631

Live tracking and technical data element details for FORMOSAT-3 FM2 (NORAD 29052). FORMOSAT-3 FM2 can be tracked NOW for your location showing map with azimuth and elevation plus other details from your city location.

Track the satellite on the map from your city or location and see movement details for azimuth, elevation, latitude, longitude, range, height, and movement on the map or in text.







IsCatalogInMostPopularTable: catalog: 29052, numindb: 36
Update: records affected: 1



GetName: 29052 FORMOSAT-3 FM2

Hit Count: updated at: Thu, 19 Jul 2018 21:29:08 GMT